RH
17 17 19 23 28 25 28 31 28 30 39 49 50 65 72 69 61 62 66 66 67 68 69 64 63 63 64 64 64 66 67 60 50 51 46 39 31 26 23 20 18 16 16 19 20 22 23 24 24
19 20 23 28 28 30 26 31 36 45 45 53 57 66 68 72 68 65 66 67 69 70 70 68 66 65 67 65 66 63 58 54 51 47 45 33 30 23 23 24 21 19 19 20 22 24 25 25 26
22 23 28 28 27 29 28 31 38 49 55 56 54 62 68 72 69 70 68 68 75 74 75 72 68 67 66 65 59 56 57 55 45 43 40 32 29 27 26 25 23 21 22 23 24 26 27 28 31
25 29 27 27 34 30 31 35 49 58 53 64 71 64 76 72 76 76 72 70 79 76 77 75 72 72 69 65 64 63 58 49 41 44 39 33 33 34 28 27 25 23 25 25 26 27 28 31 38
27 29 31 31 30 29 34 46 58 63 58 66 60 73 80 84 77 76 75 77 79 85 86 78 76 77 73 72 71 64 54 46 43 46 45 38 35 32 29 29 26 29 29 27 28 29 32 37 43
32 31 34 31 31 37 42 64 61 67 63 65 73 73 72 91 82 75 75 76 84 87 87 81 81 82 80 80 75 64 55 48 49 47 44 39 40 36 32 28 29 32 32 31 30 33 39 44 47
31 35 35 31 37 46 48 61 61 59 65 70 71 74 77 85 77 75 74 83 92 96 91 85 87 92 92 91 76 67 55 51 51 53 44 50 44 38 37 35 33 34 32 34 37 39 47 50 51
31 34 34 32 43 48 47 57 60 57 55 58 63 70 69 69 70 69 68 72 80 87 94 90 93 98 99 87 74 62 56 57 57 59 54 46 38 39 38 36 36 36 36 37 40 50 53 54 56
33 35 35 35 40 43 50 54 55 58 58 58 59 61 65 68 72 74 71 74 76 88 93 94 98 99 95 88 76 69 64 62 65 62 51 47 43 41 45 42 42 38 39 41 53 57 60 60 57
36 37 35 34 33 37 44 52 56 56 57 55 56 58 61 64 67 77 78 78 80 84 90 94 96 96 95 92 82 74 71 76 64 47 47 45 45 51 47 36 41 41 46 56 61 63 62 58 56
37 39 36 36 36 36 44 52 54 52 53 53 58 62 62 67 69 76 78 82 83 84 90 99 93 87 83 87 88 87 78 67 55 53 55 54 53 49 48 43 47 51 58 62 68 62 56 57 54
36 39 41 39 44 47 49 51 51 49 50 49 54 63 69 71 74 76 78 80 84 86 89 94 95 96 88 93 92 86 82 67 60 54 55 51 46 45 49 49 50 57 64 68 62 59 59 56 55
31 40 46 45 50 50 50 48 51 48 47 48 59 64 67 72 77 77 80 83 87 88 89 91 95 91 92 86 80 73 69 64 62 61 51 45 48 45 44 49 55 64 72 63 58 56 55 47 38
37 41 51 51 50 50 49 52 52 53 51 53 73 78 78 76 80 81 81 82 88 87 92 94 95 94 91 88 86 78 68 61 58 53 47 43 41 45 56 66 71 69 63 57 55 51 44 37 36
45 49 47 47 49 51 50 56 54 53 54 55 70 86 87 88 88 87 89 88 91 93 95 94 96 97 86 76 65 52 46 46 47 40 37 46 57 67 76 80 65 58 53 52 49 40 37 38 37
47 46 54 49 46 47 48 56 53 52 52 55 59 78 94 97 95 97 97 95 98 96 93 89 88 83 77 59 53 47 43 41 40 50 61 66 76 78 78 65 54 49 50 48 41 39 40 39 38
43 48 47 45 43 42 45 51 53 50 45 51 58 69 79 94 92 84 82 74 67 59 60 60 60 71 55 43 40 47 53 57 65 71 73 75 76 61 55 52 50 50 47 43 39 39 41 39 38
48 46 43 45 46 44 46 47 50 54 50 48 52 62 67 67 72 70 70 67 64 56 57 59 68 76 64 60 52 51 57 65 72 75 76 78 74 58 54 50 51 47 43 40 40 40 41 41 42
44 48 49 49 44 46 48 46 49 56 59 49 47 43 58 58 57 60 65 61 63 65 66 69 70 67 63 55 57 61 61 67 71 76 84 88 70 58 51 53 47 42 41 40 41 42 45 47 49
49 52 51 48 42 46 47 46 47 52 53 54 49 46 43 48 53 52 55 58 61 62 62 64 67 71 66 65 62 64 65 69 75 79 85 74 61 58 55 48 42 41 40 42 45 50 54 54 54
48 51 49 46 45 43 43 41 43 46 51 49 52 47 44 42 45 47 48 48 48 49 53 59 65 69 71 67 61 66 68 68 68 80 82 76 68 59 50 44 42 41 43 49 57 58 62 63 68
51 48 45 44 44 48 40 42 35 38 43 46 51 49 45 44 41 40 41 43 44 46 50 51 56 58 58 64 64 62 68 73 78 85 88 83 74 61 49 46 44 45 51 60 64 67 72 74 72
49 48 47 47 41 38 36 34 39 34 37 39 47 52 52 48 43 41 41 43 45 47 49 51 53 55 57 57 61 66 72 75 82 92 95 92 75 61 57 54 51 51 62 70 73 76 76 80 79
48 50 51 49 47 47 43 37 37 37 37 39 42 46 51 53 50 48 47 49 51 53 56 61 60 64 66 64 67 75 81 81 81 86 91 91 69 58 63 63 57 60 72 75 80 83 86 84 67
48 51 56 55 50 50 44 41 40 34 35 36 39 43 50 51 52 57 56 54 51 53 56 61 66 65 72 71 80 89 85 82 77 75 89 88 70 59 66 62 67 74 77 78 80 88 90 79 69
46 50 55 52 51 48 42 37 36 32 32 31 33 39 42 44 44 53 57 58 57 57 55 58 60 67 74 75 80 82 69 64 61 71 84 76 67 75 68 72 76 77 81 87 85 88 86 77 63
48 50 49 50 50 47 40 37 28 28 27 31 31 36 42 43 41 44 51 55 56 58 54 55 63 67 72 74 72 64 60 58 61 75 82 72 76 76 74 79 82 89 91 93 89 76 75 66 64
46 50 51 50 53 50 40 35 34 30 32 33 31 30 40 41 39 39 41 43 45 49 53 52 61 63 62 65 53 53 54 59 65 74 77 77 83 83 87 92 95 97 97 95 79 70 66 64 66
46 47 48 49 49 50 47 40 34 30 32 32 32 31 31 33 35 36 33 32 35 39 44 48 50 58 66 57 59 63 66 68 73 80 85 88 86 93 97 97 97 97 91 77 71 70 68 69 72
46 47 51 49 53 50 48 40 37 34 34 32 32 33 31 31 31 28 31 31 32 38 42 44 50 58 64 69 66 64 66 72 78 85 90 94 98 99 97 97 95 94 86 75 77 75 72 74 73